EW3145 Weather Reports


Display with metric or nautical units.
time (UTC)temp
F
wind
direction
speed
MPH
gust
MPH
rain 1hr
in
rain 24hr
in
rain mn
in
humidity
%
barometer
mb
20190822160152 90 237 0.0 3.0 0.00 0.00 0.00 59 1007.7
20190822154716 89 256 0.0 1.0 0.00 0.00 0.00 64 1007.8
20190822153238 88 264 0.0 0.0 0.00 0.00 0.00 64 1008.0
20190822151738 88 151 0.0 0.0 0.00 0.00 0.00 66 1008.1
20190822150111 86 272 0.0 1.0 0.00 0.00 0.00 68 1008.3
20190822144614 84 243 0.0 1.0 0.00 0.00 0.00 71 1008.4
20190822143132 82 264 0.0 0.0 0.00 0.00 0.00 74 1008.5
20190822141631 82 294 0.0 0.0 0.00 0.00 0.00 74 1008.5
20190822140143 81 176 0.0 0.0 0.00 0.00 0.00 75 1008.5
20190822134651 81 194 0.0 0.0 0.00 0.00 0.00 74 1008.4
20190822133119 81 158 0.0 0.0 0.00 0.00 0.00 74 1008.4
20190822131552 80 179 0.0 0.0 0.00 0.00 0.00 75 1008.5
20190822123008 77 249 0.0 0.0 0.00 0.00 0.00 79 1008.5
20190822121501 75 194 0.0 0.0 0.00 0.00 0.00 81 1008.6
20190822120136 73 192 0.0 0.0 0.00 0.00 0.00 87 1008.6
20190822114713 70 184 0.0 0.0 0.00 0.00 0.00 93 1008.6
20190822113254 68 199 0.0 0.0 0.00 0.00 0.00 98 1008.6
20190822111601 67 186 0.0 0.0 0.00 0.00 0.00 98 1008.5
20190822110139 66 186 0.0 0.0 0.00 0.00 0.00 98 1008.4
20190822104635 66 186 0.0 0.0 0.00 0.00 0.00 98 1008.4
20190822103150 66 188 0.0 0.0 0.00 0.00 0.00 98 1008.3
20190822101644 65 188 0.0 0.0 0.00 0.00 0.00 98 1008.1
20190822100149 65 177 0.0 0.0 0.00 0.00 0.00 97 1008.0
20190822094624 65 194 0.0 0.0 0.00 0.00 0.00 97 1007.9
20190822093139 66 194 0.0 0.0 0.00 0.00 0.00 97 1007.9
20190822091628 66 194 0.0 0.0 0.00 0.00 0.00 97 1007.9
20190822090057 66 194 0.0 0.0 0.00 0.00 0.00 97 1007.6
20190822084626 66 194 0.0 0.0 0.00 0.00 0.00 97 1007.6
20190822083115 66 194 0.0 0.0 0.00 0.00 0.00 96 1007.5
20190822081634 67 194 0.0 0.0 0.00 0.00 0.00 97 1007.4
20190822080050 67 188 0.0 0.0 0.00 0.00 0.00 96 1007.5
20190822074547 67 275 0.0 0.0 0.00 0.00 0.00 95 1007.5
20190822073125 67 275 0.0 0.0 0.00 0.00 0.00 95 1007.4
20190822071643 68 275 0.0 0.0 0.00 0.00 0.00 94 1007.4
20190822070106 68 275 0.0 0.0 0.00 0.00 0.00 94 1007.5
20190822064602 68 263 0.0 0.0 0.00 0.00 0.00 94 1007.5
20190822063036 68 263 0.0 0.0 0.00 0.00 0.00 94 1007.6
20190822061554 69 218 0.0 0.0 0.00 0.00 0.00 94 1007.6
20190822060032 69 186 0.0 0.0 0.00 0.00 0.00 94 1007.7
20190822054636 69 259 0.0 0.0 0.00 0.00 0.00 94 1007.6
20190822053056 69 259 0.0 0.0 0.00 0.00 0.00 94 1007.9
20190822051606 69 229 0.0 2.0 0.00 0.00 0.00 94 1008.1
20190822050101 69 298 0.0 0.0 0.00 0.00 0.00 94 1008.2
20190822044540 69 163 0.0 0.0 0.00 0.00 0.00 94 1008.2
20190822043056 70 163 0.0 0.0 0.00 0.00 0.00 94 1008.1
20190822041544 70 176 0.0 0.0 0.00 0.00 0.00 93 1008.0
20190822040021 70 157 0.0 0.0 0.00 0.00 0.00 93 1008.1
20190822034541 71 182 0.0 0.0 0.00 0.00 0.00 93 1007.8
20190822033032 71 165 0.0 0.0 0.00 0.00 0.00 93 1007.7
20190822031511 71 185 0.0 0.0 0.00 0.00 0.00 93 1007.8
20190822030014 72 184 0.0 0.0 0.00 0.00 0.00 93 1007.8
20190822024511 72 254 0.0 0.0 0.00 0.00 0.00 94 1007.8
20190822023037 72 300 0.0 0.0 0.00 0.00 0.00 95 1007.7
20190822021529 72 188 0.0 0.0 0.00 0.00 0.00 96 1007.6
20190822020024 72 171 0.0 0.0 0.00 0.00 0.00 96 1007.3
20190822014533 73 168 0.0 0.0 0.00 0.00 0.00 96 1007.2
20190822013007 73 168 0.0 0.0 0.00 0.00 0.00 95 1007.2
20190822011503 73 192 0.0 0.0 0.00 0.00 0.00 95 1007.3
20190822010006 73 172 0.0 0.0 0.00 0.00 0.00 95 1007.6
20190822004656 73 157 0.0 0.0 0.00 0.00 0.00 94 1007.9
20190822003156 73 162 0.0 0.0 0.00 0.00 0.00 94 1007.6
20190822001712 74 166 0.0 0.0 0.00 0.00 0.00 94 1007.4
20190822000216 74 167 0.0 0.0 0.00 0.00 0.00 93 1007.6
20190821234909 74 185 0.0 0.0 0.00 0.00 0.00 93 1007.8
20190821233217 74 202 0.0 0.0 0.00 0.00 0.00 93 1007.9
20190821231654 75 205 0.0 0.0 0.00 0.00 0.00 93 1008.0
20190821230118 75 179 0.0 0.0 0.00 0.00 0.00 92 1008.1
20190821224723 75 174 0.0 0.0 0.00 0.00 0.00 93 1008.3
20190821223123 76 210 0.0 0.0 0.00 0.00 0.00 93 1008.2
20190821221735 76 178 0.0 0.0 0.00 0.00 0.00 93 1008.2
20190821220203 76 200 0.0 0.0 0.00 0.00 0.00 93 1008.3
20190821214641 76 183 0.0 0.0 0.00 0.00 0.00 95 1008.3
20190821213157 75 148 0.0 0.0 0.00 0.00 0.00 95 1008.4
20190821211700 74 40 0.0 0.0 0.00 0.00 0.00 94 1008.6
20190821210131 74 67 0.0 0.0 0.00 0.00 0.00 94 1008.8
20190821204651 74 67 0.0 0.0 0.00 0.00 0.00 94 1009.0
20190821203114 73 67 0.0 0.0 0.00 0.00 0.00 94 1009.2
20190821201613 73 105 0.0 0.0 0.00 0.00 0.00 93 1009.4
20190821200058 73 132 0.0 0.0 0.00 0.00 0.00 94 1009.7
20190821194632 73 131 0.0 0.0 0.00 0.00 0.00 95 1009.5
20190821193123 72 131 0.0 0.0 0.00 0.00 0.00 94 1009.6
20190821191548 72 127 0.0 0.0 0.00 0.00 0.00 96 1009.8
20190821190058 72 140 0.0 0.0 0.00 0.00 0.00 94 1009.8
20190821184610 71 144 0.0 0.0 0.00 0.00 0.00 93 1010.0
20190821183133 72 77 0.0 0.0 0.00 0.00 0.00 90 1010.3
20190821181535 74 191 0.0 9.0 0.00 0.00 0.00 85 1010.5
20190821180046 78 111 0.0 2.0 0.00 0.00 0.00 86 1010.7
20190821174544 79 86 0.0 0.0 0.00 0.00 0.00 80 1010.5
20190821173049 80 103 0.0 0.0 0.00 0.00 0.00 78 1010.7
20190821171538 80 152 0.0 0.0 0.00 0.00 0.00 78 1010.9
20190821170036 79 40 0.0 0.0 0.00 0.00 0.00 80 1011.2
20190821164605 78 65 0.0 0.0 0.00 0.00 0.00 80 1011.7
20190821163059 78 198 0.0 0.0 0.00 0.00 0.00 81 1012.0
20190821161519 77 198 0.0 0.0 0.00 0.00 0.00 85 1011.9